This demonstration page uses our WeatherBlox Daily Observations layout. Learn more.

Left ArrowRight Arrow

31.84235, -102.49876

Hourly Observations for May 12, 2022

Temp ( °F °C ) Dew Point ( °F °C ) Humidity (%) Winds ( mph kmh ) Pressure ( in mb ) Visibility ( mi km ) Precip ( " mm )
12:53 am 00:53 Clear 80 26.7 58 14.4 47 47 S 28 44 29.81 1009 10 16 0.00 0.00
1:53 am 01:53 Clear 79 26.1 57 13.9 47 47 S 25 41 29.82 1010 10 16 0.00 0.00
2:53 am 02:53 Clear 79 26.1 57 13.9 47 47 SSW 16 26 29.84 1011 10 16 0.00 0.00
3:07 am 03:07 Clear with Nearby Thunderstorms 79 26.1 58 14.4 49 49 S 16 26 29.82 1010 10 16 0.00 0.00
3:22 am 03:22 Clear 78 25.6 58 14.4 50 50 S 14 22 29.82 1010 10 16 0.00 0.00
3:53 am 03:53 Clear 77 25 59 15 54 54 S 22 35 29.82 1010 10 16 0.00 0.00
4:53 am 04:53 Clear 75 23.9 61 16.1 62 62 S 16 26 29.82 1010 10 16 0.00 0.00
5:53 am 05:53 Clear 73 22.8 62 16.7 69 69 S 18 30 29.83 1010 10 16 0.00 0.00
6:53 am 06:53 Clear 72 22.2 62 16.7 71 71 S 15 24 29.83 1010 10 16 0.00 0.00
7:53 am 07:53 Sunny 72 22.2 63 17.2 73 73 S 18 30 29.84 1010 10 16 0.00 0.00
8:53 am 08:53 Sunny 74 23.3 63 17.2 69 69 S 20 31 29.85 1011 10 16 0.00 0.00
9:53 am 09:53 Sunny 78 25.6 63 17.2 60 60 S 17 28 29.85 1011 10 16 0.00 0.00
10:53 am 10:53 Sunny 82 27.8 62 16.7 51 51 SW 16 26 29.85 1011 10 16 0.00 0.00
11:53 am 11:53 Sunny 86 30 60 15.6 42 42 SW 15 24 29.84 1011 10 16 0.00 0.00
12:53 pm 12:53 Sunny 88 31.1 56 13.3 34 34 SSW 7 11 29.83 1010 10 16 0.00 0.00
1:53 pm 13:53 Sunny 91 32.8 56 13.3 31 31 SSE 8 13 29.80 1009 10 16 0.00 0.00
2:53 pm 14:53 Sunny 95 35 53 11.7 24 24 SSW 13 20 29.78 1008 10 16 0.00 0.00
3:53 pm 15:53 Sunny 96 35.6 50 10 21 21 S 15 24 29.75 1007 10 16 0.00 0.00
4:53 pm 16:53 Sunny 96 35.6 49 9.4 20 20 SSE 9 15 29.72 1006 10 16 0.00 0.00
5:53 pm 17:53 Sunny 96 35.6 46 7.8 18 18 S 9 15 29.70 1006 10 16 0.00 0.00
6:53 pm 18:53 Sunny 96 35.6 47 8.3 19 19 SSE 15 24 29.70 1006 10 16 0.00 0.00
7:53 pm 19:53 Sunny 94 34.4 47 8.3 20 20 S 16 26 29.70 1006 10 16 0.00 0.00
8:53 pm 20:53 Clear 90 32.2 55 12.8 31 31 S 14 22 29.72 1007 10 16 0.00 0.00
9:53 pm 21:53 Mostly Clear 87 30.6 58 14.4 37 37 S 16 26 29.77 1008 10 16 0.00 0.00
10:53 pm 22:53 Clear 84 28.9 57 13.9 40 40 S 14 22 29.78 1008 10 16 0.00 0.00
11:53 pm 23:53 Clear 83 28.3 57 13.9 41 41 S 13 20 29.77 1008 10 16 0.00 0.00

Powered by AerisWeather